Regional Weather Roundup
Issued by NWS

Home | Current Version | Previous Version | Text Only | Print | Product List | Glossary Off
Versions: 1 2 3 4 5 6 7 8 9 10 11 12 13 14 15 16 17 18 19 20 21 22 23 24 25 26 27 28 29 30 31 32 33 34 35 36 37 38 39 40 41 42 43 44 45 46 47 48 49 50

000
ASUS43 KLOT 250103
RWRIL

ILLINOIS REGIONAL WEATHER ROUNDUP
NATIONAL WEATHER SERVICE CHICAGO/ROMEOVILLE IL
800 PM CDT SAT SEP 24 2016

NOTE: "FAIR" INDICATES FEW OR NO CLOUDS BELOW 12,000 FEET WITH NO
SIGNIFICANT WEATHER AND/OR OBSTRUCTIONS TO VISIBILITY.

* THESE STATIONS ARE NOT UNDER NWS QUALITY CONTROL. THEY ALSO MAY NOT
  REPORT WEATHER SUCH AS PRECIPITATION OR FOG.

ILZ001-002-007-009-015-016-024-250200-
NORTHWEST ILLINOIS

CITY           SKY/WX    TMP DP  RH WIND       PRES   REMARKS
MOLINE         CLEAR     73  67  81 E8        30.04R
STERLING*      CLEAR     71  67  87 E7        30.08R
$$

ILZ003-004-008-010-011-017-018-250200-
NORTH CENTRAL ILLINOIS

CITY           SKY/WX    TMP DP  RH WIND       PRES   REMARKS
ROCKFORD       CLEAR     69  63  81 E5        30.12R
FREEPORT*      CLEAR     65  63  91 E6        30.12R
ROCHELLE*      CLEAR     69  64  86 E6        30.11R
$$

ILZ005-006-012>014-019>023-250200-
NORTHEAST ILLINOIS

CITY           SKY/WX    TMP DP  RH WIND       PRES   REMARKS
CHICAGO-OHARE  CLEAR     69  63  81 NE6       30.12S
CHICAGO-MIDWAY CLEAR     72  64  76 E9        30.11S
AURORA         CLEAR     69  63  81 NE6       30.11R
LANSING*       CLEAR     69  67  91 NE5       30.11S
WAUKEGAN       CLEAR     65  62  90 E6        30.13S
DUPAGE AIRPORT CLEAR     68  62  81 NE7       30.10F
KANKAKEE*      CLEAR     73  65  78 E6        30.10R
WHEELING       CLEAR     67  62  84 NE3       30.14R
NORTHERLY ISL    N/A     70  65  84 NE8         N/A
$$

LMZ740>746-250200-
SOUTHERN LAKE MICHIGAN

STATION/POSITION SKY/WX   TEMP    WIND        PRES    VSBY  WAVE
                          AIR SEA DIR/SP/G                  HT/PER
                          (F)     (DEG/KT/KT) (MB)    (MI)  (FT/S)
SOUTHERN BUOY              70 72   90/ 14/ 16 1020.2          1/ 3
WILMETTE HARBOR            68 66  100/  6/  8   N/A           2/ 5
HARRISON CRIB              71      70/ 12/ 13   N/A
BURNHAM HARBOR             70      70/  9       N/A
CALUMET HARBOR             69      30/  3/  7 1019.2F
BURNS HARBOR               68      70/  9/ 11 1020.0F
MICHIGAN CITY              72      50/  7/  8   N/A
MICHIGAN CITY 6N           71 70   80/  8/ 10   N/A           2/ 3
ST. JOSEPH                 71 71   80/  8/ 10 1020.2F         1
$$

ILZ025>027-034>036-040-047-049-050-058-095>099-250200-
WEST-CENTRAL ILLINOIS

CITY           SKY/WX    TMP DP  RH WIND       PRES   REMARKS
QUINCY         CLEAR     77  66  68 CALM      30.02R HAZE
GALESBURG*       N/A    N/A N/A N/A MISG        N/A
MACOMB*        CLEAR     74  66  74 CALM      30.05R
$$

ILZ028>032-037-038-041>044-048-051>054-059>061-250200-
CENTRAL ILLINOIS

CITY           SKY/WX    TMP DP  RH WIND       PRES   REMARKS
BLOOMINGTON    CLEAR     76  67  73 E7        30.07R
DECATUR        CLEAR     79  63  57 S6        30.04S HX  80
PEORIA         CLEAR     77  70  79 NE8       30.03S
SPRINGFIELD    CLEAR     79  64  60 S7        30.03R HX  81
TAYLORVILLE    NOT AVBL
$$

ILZ033-039-045-046-055>057-062-063-250200-
EAST-CENTRAL ILLINOIS

CITY           SKY/WX    TMP DP  RH WIND       PRES   REMARKS
CHAMPAIGN      CLEAR     76  67  73 E7        30.06S
MATTOON        CLEAR     73  66  78 SE5       30.05R
$$

ILZ079-100>102-250200-
SOUTHWEST ILLINOIS

CITY           SKY/WX    TMP DP  RH WIND       PRES   REMARKS
ALTON          CLEAR     75  66  73 E6        30.02S
BELLEVILLE     CLEAR     77  70  78 E3        30.00S
CAHOKIA*       CLEAR     77  68  73 S3        30.00S
SPARTA*        CLEAR     74  71  88 CALM      30.03S
$$

ILZ064>066-069>071-074>076-080>082-084>086-088>090-092>094-250200-
SOUTH-CENTRAL ILLINOIS

CITY           SKY/WX    TMP DP  RH WIND       PRES   REMARKS
CARBONDALE     CLEAR     73  72  96 CALM      30.02S
MT. VERNON     CLEAR     72  66  83 CALM      30.04S
CENTRALIA*     CLEAR     74  72  93 CALM      30.03S
SALEM*         CLEAR     74  70  85 CALM      30.03S
METROPOLIS*    CLEAR     75  71  85 CALM      30.03S
$$

ILZ067-068-072-073-078-083-087-091-250200-
SOUTHEAST ILLINOIS

CITY           SKY/WX    TMP DP  RH WIND       PRES   REMARKS
LAWRENCEVILLE  CLEAR     77  66  68 E6        30.05S
FLORA*         CLEAR     75  69  82 CALM      30.04S
HARRISBURG*    CLEAR     76  72  87 CALM      30.04S
ROBINSON*      CLEAR     73  68  83 E6        30.06S
$$

ABBREVIATIONS USED IN REMARKS
   TC - TEMPERATURE IN CELSIUS
  WCI - WIND CHILL INDEX
   HX - HEAT INDEX
  VSB - VISIBILITY
$$





USA.gov is the U.S. government's official web portal to all federal, state and local government web resources and services.